Terminal Aerodrome Forecast
Issued by NWS Wilmington, OH

Current Version | Previous Version | Graphics & Text | Print | Product List | Glossary On
Versions: 1 2 3 4 5 6 7 8 9 10 11 12 13 14 15 16 17 18 19 20 21
000
FTUS41 KILN 181135
TAFCVG
TAF
KCVG 181135Z 1812/1918 16004KT P6SM SKC
     FM181600 19008KT P6SM SKC
     FM182300 19004KT P6SM SKC=

USA.gov is the U.S. government's official web portal to all federal, state and local government web resources and services.